User:    Logout
Location:
(unspecified)
Time: 11:37:42
(UTC+00:00)
Language:

TMSAT-1 - Orbit

View from above orbital plane
View from above orbital plane
View from above satellite
View from above satellite

Ground track
Ground track

The orbit data is extracted from the following two-line orbital elements,

1 25396U 98043C   17209.81387026 +.00000001 +00000-0 +19128-4 0  9999
2 25396 098.5860 152.8867 0002268 179.1027 181.0156 14.24446709989879
Epoch (UTC): 28 July 2017 19:31:58
Eccentricity: 0.0002268
inclination: 98.5860°
perigee height: 809 km
apogee height: 812 km
right ascension of ascending node: 152.8867°
argument of perigee: 179.1027°
revolutions per day: 14.24446709
mean anomaly at epoch: 181.0156°
orbit number at epoch: 98987

The dashed part of the orbit path shows where the satellite is in the earth's shadow,  

DLR